Regional Weather Roundup
Issued by NWS

Home | Current Version | Previous Version | Text Only | Print | Product List | Glossary On
Versions: 1 2 3 4 5 6 7 8 9 10 11 12 13 14 15 16 17 18 19 20 21 22 23 24 25 26 27 28 29 30 31 32 33 34 35 36 37 38 39 40 41 42 43 44 45 46 47 48 49 50
000
ASUS42 KFFC 262303
RWRGA
WEATHER ROUNDUP FOR GEORGIA
NATIONAL WEATHER SERVICE PEACHTREE CITY GA
700 PM EDT THU MAY 26 2016

NOTE: "FAIR" INDICATES FEW OR NO CLOUDS BELOW 12,000 FEET WITH NO
SIGNIFICANT WEATHER AND/OR OBSTRUCTIONS TO VISIBILITY.

* = USE WITH CAUTION. THE STATIONS MARKED WITH AN ASTERISK MAY NOT
REPORT WEATHER SUCH AS PRECIPITATION, FOG, OR THUNDER AND ARE NOT
QUALITY CONTROLLED BY NWS.

THE REMARK "TC" DENOTES TEMPERATURE READING IN DEGREES CELSIUS.

GAZ001>058-270000-
NORTH GEORGIA

CITY           SKY/WX    TMP DP  RH WIND       PRES   REMARKS
ATLANTA        MOSUNNY   85  61  44 SW7       30.07S
ATHENS         SUNNY     85  64  49 VRB3      30.07F
CHAMBLEE       CLOUDY    86  60  41 VRB7      30.07S
ROME           MOSUNNY   88  59  37 S7        30.03F
WEST ATLANTA   MOSUNNY   85  61  44 VRB5      30.06S
GAINESVILLE    SUNNY     84  57  39 CALM      30.10F
CARTERSVILLE   SUNNY     86  60  41 S5        30.06S


CITY           SKY/WX    TMP DP  RH WIND       PRES   REMARKS
DALTON*        MOSUNNY   88  55  33 S6        30.05S
LAWRENCEVILLE* MOSUNNY   82  63  51 CALM      30.08F
KENNESAW*      MOSUNNY   88  57  35 SW7       30.01F
CANTON*        MOSUNNY   86  50  28 CALM      30.10R
BLAIRSVILLE*     N/A    N/A N/A N/A MISG      30.13R
$$

GAZ059>098-102>109-270000-
CENTRAL GEORGIA

CITY           SKY/WX    TMP DP  RH WIND       PRES   REMARKS
AUGUSTA-BUSH   PTSUNNY   84  65  52 S3        30.05F
AUGUSTA-DANIEL MOSUNNY   87  61  41 SE6       30.07F
COLUMBUS       SUNNY     86  60  41 SW8       30.05R
MACON          SUNNY     88  60  38 SW5       30.06S


CITY           SKY/WX    TMP DP  RH WIND       PRES   REMARKS
LAGRANGE*      SUNNY     87  66  49 S5        30.07S
SYLVANIA*      SUNNY     85  63  47 SE6       30.09F
MILLEDGEVILLE* MOSUNNY   86  64  48 CALM      30.06F
$$

GAZ099>101-110>166-270000-
SOUTH GEORGIA

CITY           SKY/WX    TMP DP  RH WIND       PRES   REMARKS
SAVANNAH       SUNNY     82  53  36 SE13      30.10F
VALDOSTA       MOSUNNY   85  61  44 NE6       30.05F
ALMA           SUNNY     84  61  45 E9        30.07F
ST SIMONS      SUNNY     78  64  61 E9        30.11S
ALBANY         SUNNY     87  58  37 SE6       30.07S
BRUNSWICK      SUNNY     84  63  48 E12       30.11S


CITY           SKY/WX    TMP DP  RH WIND       PRES   REMARKS
BAINBRIDGE*    MOSUNNY   88  61  40 SE8       30.05S
MOULTRIE*      MOSUNNY   84  61  45 E3        30.07F
VIDALIA*       SUNNY     86  61  42 SE3       30.08F
WAYCROSS*      SUNNY     83  58  41 SE10      30.07F
DOUGLAS*       MOSUNNY   86  59  39 E9        30.08S
$$



USA.gov is the U.S. government's official web portal to all federal, state and local government web resources and services.